Location: Bemmer
(51.5498°N, 5.6249°E)
Time: 17:23:55
(UTC+00:00)

Cosmos 1959 Rocket - Pass Details

Date: 03 March 2021
Orbit: 948 x 996 km, 83.0° (Epoch: 12 April)

Event Time Altitude Azimuth Distance (km) Brightness Sun altitude
Rises 19:11:21 0° 175° (S) 3,609 7.3 -17.8°
Reaches altitude 10° 19:13:51 10° 171° (S) 2,666 6.6 -18.2°
Maximum altitude 19:19:49 60° 93° (E) 1,082 4.4 -19.1°
Drops below altitude 10° 19:25:50 10° 16° (NNE) 2,692 6.8 -20.0°
Sets 19:28:23 0° 13° (NNE) 3,647 7.5 -20.3°
